TimeCST,TemperatureF,Dew PointF,Humidity,Sea Level PressureIn,VisibilityMPH,Wind Direction,Wind SpeedMPH,Gust SpeedMPH,PrecipitationIn,Events,Conditions,WindDirDegrees,DateUTC
12:56 AM,34.0,34.0,100,29.95,10.0,West,4.6,-,N/A,,Clear,280,2014-01-12 06:56:00
1:56 AM,32.0,32.0,100,29.97,10.0,West,4.6,-,N/A,,Clear,260,2014-01-12 07:56:00
2:56 AM,31.1,31.1,100,29.99,10.0,West,4.6,-,N/A,,Clear,270,2014-01-12 08:56:00
3:56 AM,32.0,30.0,92,29.99,10.0,WNW,3.5,-,N/A,,Clear,290,2014-01-12 09:56:00
4:56 AM,28.0,28.0,100,30.02,10.0,Calm,Calm,-,N/A,,Clear,0,2014-01-12 10:56:00
5:56 AM,28.0,28.0,100,30.05,10.0,SSW,5.8,-,N/A,,Clear,200,2014-01-12 11:56:00
6:56 AM,28.0,28.0,100,30.07,10.0,SSW,5.8,-,N/A,,Clear,210,2014-01-12 12:56:00
7:56 AM,29.1,29.1,100,30.08,8.0,Calm,Calm,-,N/A,,Clear,0,2014-01-12 13:56:00
8:56 AM,36.0,34.0,93,30.11,10.0,South,4.6,-,N/A,,Clear,190,2014-01-12 14:56:00
9:56 AM,38.8,34.9,86,30.10,10.0,South,8.1,-,N/A,,Clear,170,2014-01-12 15:56:00
10:56 AM,41.9,36.0,79,30.07,10.0,South,10.4,-,N/A,,Clear,190,2014-01-12 16:56:00
11:56 AM,45.0,36.9,73,30.04,10.0,South,15.0,-,N/A,,Clear,190,2014-01-12 17:56:00
12:56 PM,47.8,37.9,69,30.01,10.0,SSW,15.0,-,N/A,,Clear,200,2014-01-12 18:56:00
1:56 PM,50.0,37.9,63,29.99,10.0,South,15.0,-,N/A,,Clear,180,2014-01-12 19:56:00
2:56 PM,50.9,37.9,61,29.99,10.0,South,10.4,-,N/A,,Clear,190,2014-01-12 20:56:00
3:56 PM,50.0,36.9,61,29.97,10.0,South,11.5,-,N/A,,Clear,170,2014-01-12 21:56:00
4:56 PM,46.9,34.9,63,29.98,10.0,SSE,11.5,-,N/A,,Clear,160,2014-01-12 22:56:00
5:56 PM,45.9,34.0,63,29.97,10.0,South,13.8,-,N/A,,Clear,170,2014-01-12 23:56:00
6:56 PM,45.0,32.9,63,29.96,10.0,SSE,11.5,-,N/A,,Clear,160,2014-01-13 00:56:00
7:56 PM,43.9,32.9,65,29.94,10.0,SSE,11.5,18.4,N/A,,Clear,160,2014-01-13 01:56:00
8:56 PM,43.9,32.9,65,29.92,10.0,South,13.8,-,N/A,,Clear,170,2014-01-13 02:56:00
9:56 PM,43.0,32.9,68,29.91,10.0,South,12.7,-,N/A,,Clear,170,2014-01-13 03:56:00
10:56 PM,43.0,32.9,68,29.89,10.0,South,13.8,-,N/A,,Clear,180,2014-01-13 04:56:00
11:56 PM,43.9,32.9,65,29.90,10.0,South,11.5,-,N/A,,Clear,180,2014-01-13 05:56:00